#datetime,building,power
2023-10-02T00:00:00,rvs,13.23
2023-10-02T00:01:00,rvs,13.08
2023-10-02T00:02:00,rvs,13.18
2023-10-02T00:03:00,rvs,14.01
2023-10-02T00:04:00,rvs,13.61
2023-10-02T00:05:00,rvs,13.39
2023-10-02T00:06:00,rvs,13.44
2023-10-02T00:07:00,rvs,13.30
2023-10-02T00:08:00,rvs,13.12
2023-10-02T00:09:00,rvs,15.77
2023-10-02T00:10:00,rvs,15.88
2023-10-02T00:11:00,rvs,15.96
2023-10-02T00:12:00,rvs,14.69
2023-10-02T00:13:00,rvs,13.55
2023-10-02T00:14:00,rvs,13.36
2023-10-02T00:15:00,rvs,13.36
2023-10-02T00:16:00,rvs,13.10
2023-10-02T00:17:00,rvs,12.19
2023-10-02T00:18:00,rvs,12.11
2023-10-02T00:19:00,rvs,12.51
2023-10-02T00:20:00,rvs,12.03
2023-10-02T00:21:00,rvs,11.96
2023-10-02T00:22:00,rvs,11.66
2023-10-02T00:23:00,rvs,12.42
2023-10-02T00:24:00,rvs,12.41
2023-10-02T00:25:00,rvs,12.33
2023-10-02T00:26:00,rvs,25.39
2023-10-02T00:27:00,rvs,24.95
2023-10-02T00:28:00,rvs,24.52
2023-10-02T00:29:00,rvs,24.55
2023-10-02T00:30:00,rvs,24.23
2023-10-02T00:31:00,rvs,12.29
2023-10-02T00:32:00,rvs,12.18
2023-10-02T00:33:00,rvs,11.86
2023-10-02T00:34:00,rvs,12.88
2023-10-02T00:35:00,rvs,14.48
2023-10-02T00:36:00,rvs,14.92
2023-10-02T00:37:00,rvs,14.76
2023-10-02T00:38:00,rvs,12.67
2023-10-02T00:39:00,rvs,12.59
2023-10-02T00:40:00,rvs,12.64
2023-10-02T00:41:00,rvs,12.52
2023-10-02T00:42:00,rvs,11.80
2023-10-02T00:43:00,rvs,11.74
2023-10-02T00:44:00,rvs,11.69
2023-10-02T00:45:00,rvs,11.37
2023-10-02T00:46:00,rvs,11.63
2023-10-02T00:47:00,rvs,11.94
2023-10-02T00:48:00,rvs,12.58
2023-10-02T00:49:00,rvs,12.37
2023-10-02T00:50:00,rvs,12.46
2023-10-02T00:51:00,rvs,12.50
2023-10-02T00:52:00,rvs,25.18
2023-10-02T00:53:00,rvs,25.49
2023-10-02T00:54:00,rvs,24.80
2023-10-02T00:55:00,rvs,24.56
2023-10-02T00:56:00,rvs,24.57
2023-10-02T00:57:00,rvs,24.51
2023-10-02T00:58:00,rvs,24.54
2023-10-02T00:59:00,rvs,24.47
2023-10-02T01:00:00,rvs,25.05
2023-10-02T01:01:00,rvs,24.45
2023-10-02T01:02:00,rvs,24.53
2023-10-02T01:03:00,rvs,26.43
2023-10-02T01:04:00,rvs,26.71
2023-10-02T01:05:00,rvs,26.78
2023-10-02T01:06:00,rvs,27.31
2023-10-02T01:07:00,rvs,27.94
2023-10-02T01:08:00,rvs,28.61
2023-10-02T01:09:00,rvs,24.53
2023-10-02T01:10:00,rvs,24.55
2023-10-02T01:11:00,rvs,24.48
2023-10-02T01:12:00,rvs,24.45
2023-10-02T01:13:00,rvs,24.19
2023-10-02T01:14:00,rvs,24.40
2023-10-02T01:15:00,rvs,24.05
2023-10-02T01:16:00,rvs,24.62
2023-10-02T01:17:00,rvs,24.11
2023-10-02T01:18:00,rvs,24.05
2023-10-02T01:19:00,rvs,23.98
2023-10-02T01:20:00,rvs,24.20
2023-10-02T01:21:00,rvs,24.22
2023-10-02T01:22:00,rvs,20.51
2023-10-02T01:23:00,rvs,20.26
2023-10-02T01:24:00,rvs,20.54
2023-10-02T01:25:00,rvs,24.21
2023-10-02T01:26:00,rvs,23.55
2023-10-02T01:27:00,rvs,19.36
2023-10-02T01:28:00,rvs,15.24
2023-10-02T01:29:00,rvs,19.41
2023-10-02T01:30:00,rvs,25.51
2023-10-02T01:31:00,rvs,17.32
2023-10-02T01:32:00,rvs,12.69
2023-10-02T01:33:00,rvs,14.45
2023-10-02T01:34:00,rvs,21.98
2023-10-02T01:35:00,rvs,23.95
2023-10-02T01:36:00,rvs,15.79
2023-10-02T01:37:00,rvs,11.25
2023-10-02T01:38:00,rvs,10.95
2023-10-02T01:39:00,rvs,14.92
2023-10-02T01:40:00,rvs,14.89
2023-10-02T01:41:00,rvs,10.86
2023-10-02T01:42:00,rvs,10.80
2023-10-02T01:43:00,rvs,19.09
2023-10-02T01:44:00,rvs,15.00
2023-10-02T01:45:00,rvs,11.58
2023-10-02T01:46:00,rvs,11.61
2023-10-02T01:47:00,rvs,11.45
2023-10-02T01:48:00,rvs,15.63
2023-10-02T01:49:00,rvs,11.66
2023-10-02T01:50:00,rvs,11.65
2023-10-02T01:51:00,rvs,11.80
2023-10-02T01:52:00,rvs,11.17
2023-10-02T01:53:00,rvs,11.01
2023-10-02T01:54:00,rvs,10.92
2023-10-02T01:55:00,rvs,10.99
2023-10-02T01:56:00,rvs,10.98
2023-10-02T01:57:00,rvs,10.99
2023-10-02T01:58:00,rvs,11.23
2023-10-02T01:59:00,rvs,10.93
2023-10-02T02:00:00,rvs,11.36
2023-10-02T02:01:00,rvs,11.02
2023-10-02T02:02:00,rvs,11.00
2023-10-02T02:03:00,rvs,11.33
2023-10-02T02:04:00,rvs,11.61
2023-10-02T02:05:00,rvs,10.75
2023-10-02T02:06:00,rvs,10.85
2023-10-02T02:07:00,rvs,10.37
2023-10-02T02:08:00,rvs,10.88
2023-10-02T02:09:00,rvs,11.16
2023-10-02T02:10:00,rvs,11.13
2023-10-02T02:11:00,rvs,11.16
2023-10-02T02:12:00,rvs,11.13
2023-10-02T02:13:00,rvs,11.25
2023-10-02T02:14:00,rvs,11.15
2023-10-02T02:15:00,rvs,10.97
2023-10-02T02:16:00,rvs,10.87
2023-10-02T02:17:00,rvs,10.87
2023-10-02T02:18:00,rvs,11.53
2023-10-02T02:19:00,rvs,10.86
2023-10-02T02:20:00,rvs,10.72
2023-10-02T02:21:00,rvs,10.66
2023-10-02T02:22:00,rvs,11.05
2023-10-02T02:23:00,rvs,12.82
2023-10-02T02:24:00,rvs,12.89
2023-10-02T02:25:00,rvs,12.44
2023-10-02T02:26:00,rvs,10.71
2023-10-02T02:27:00,rvs,10.54
2023-10-02T02:28:00,rvs,10.52
2023-10-02T02:29:00,rvs,9.71
2023-10-02T02:30:00,rvs,9.72
2023-10-02T02:31:00,rvs,11.69
2023-10-02T02:32:00,rvs,11.76
2023-10-02T02:33:00,rvs,11.25
2023-10-02T02:34:00,rvs,11.40
2023-10-02T02:35:00,rvs,9.96
2023-10-02T02:36:00,rvs,9.89
2023-10-02T02:37:00,rvs,11.86
2023-10-02T02:38:00,rvs,11.81
2023-10-02T02:39:00,rvs,11.65
2023-10-02T02:40:00,rvs,11.88
2023-10-02T02:41:00,rvs,12.54
2023-10-02T02:42:00,rvs,13.85
2023-10-02T02:43:00,rvs,13.65
2023-10-02T02:44:00,rvs,13.58
2023-10-02T02:45:00,rvs,14.19
2023-10-02T02:46:00,rvs,14.96
2023-10-02T02:47:00,rvs,15.43
2023-10-02T02:48:00,rvs,15.00
2023-10-02T02:49:00,rvs,14.86
2023-10-02T02:50:00,rvs,10.75
2023-10-02T02:51:00,rvs,10.84
2023-10-02T02:52:00,rvs,10.98
2023-10-02T02:53:00,rvs,12.39
2023-10-02T02:54:00,rvs,12.20
2023-10-02T02:55:00,rvs,10.52
2023-10-02T02:56:00,rvs,10.88
2023-10-02T02:57:00,rvs,10.42
2023-10-02T02:58:00,rvs,10.34
2023-10-02T02:59:00,rvs,10.32
2023-10-02T03:00:00,rvs,10.35
2023-10-02T03:01:00,rvs,10.24
2023-10-02T03:02:00,rvs,10.29
2023-10-02T03:03:00,rvs,10.26
2023-10-02T03:04:00,rvs,10.27
2023-10-02T03:05:00,rvs,10.19
2023-10-02T03:06:00,rvs,10.14
2023-10-02T03:07:00,rvs,10.31
2023-10-02T03:08:00,rvs,10.30
2023-10-02T03:09:00,rvs,10.32
2023-10-02T03:10:00,rvs,10.51
2023-10-02T03:11:00,rvs,10.47
2023-10-02T03:12:00,rvs,10.65
2023-10-02T03:13:00,rvs,10.63
2023-10-02T03:14:00,rvs,10.59
2023-10-02T03:15:00,rvs,10.47
2023-10-02T03:16:00,rvs,10.40
2023-10-02T03:17:00,rvs,10.39
2023-10-02T03:18:00,rvs,10.32
2023-10-02T03:19:00,rvs,10.76
2023-10-02T03:20:00,rvs,10.92
2023-10-02T03:21:00,rvs,10.10
2023-10-02T03:22:00,rvs,9.71
2023-10-02T03:23:00,rvs,9.87
2023-10-02T03:24:00,rvs,9.85
2023-10-02T03:25:00,rvs,22.93
2023-10-02T03:26:00,rvs,22.65
2023-10-02T03:27:00,rvs,22.52
2023-10-02T03:28:00,rvs,22.33
2023-10-02T03:29:00,rvs,10.46
2023-10-02T03:30:00,rvs,10.45
2023-10-02T03:31:00,rvs,10.22
2023-10-02T03:32:00,rvs,10.22
2023-10-02T03:33:00,rvs,10.31
2023-10-02T03:34:00,rvs,12.12
2023-10-02T03:35:00,rvs,11.93
2023-10-02T03:36:00,rvs,12.14
2023-10-02T03:37:00,rvs,12.45
2023-10-02T03:38:00,rvs,10.29
2023-10-02T03:39:00,rvs,10.81
2023-10-02T03:40:00,rvs,10.46
2023-10-02T03:41:00,rvs,10.80
2023-10-02T03:42:00,rvs,10.82
2023-10-02T03:43:00,rvs,10.58
2023-10-02T03:44:00,rvs,10.40
2023-10-02T03:45:00,rvs,10.42
2023-10-02T03:46:00,rvs,9.78
2023-10-02T03:47:00,rvs,10.25
2023-10-02T03:48:00,rvs,9.90
2023-10-02T03:49:00,rvs,9.82
2023-10-02T03:50:00,rvs,9.70
2023-10-02T03:51:00,rvs,10.17
2023-10-02T03:52:00,rvs,10.11
2023-10-02T03:53:00,rvs,10.02
2023-10-02T03:54:00,rvs,10.01
2023-10-02T03:55:00,rvs,10.42
2023-10-02T03:56:00,rvs,10.51
2023-10-02T03:57:00,rvs,10.52
2023-10-02T03:58:00,rvs,10.46
2023-10-02T03:59:00,rvs,10.37
2023-10-02T04:00:00,rvs,10.38
2023-10-02T04:01:00,rvs,10.35
2023-10-02T04:02:00,rvs,10.39
2023-10-02T04:03:00,rvs,10.57
2023-10-02T04:04:00,rvs,10.92
2023-10-02T04:05:00,rvs,10.74
2023-10-02T04:06:00,rvs,10.31
2023-10-02T04:07:00,rvs,10.67
2023-10-02T04:08:00,rvs,10.27
2023-10-02T04:09:00,rvs,10.05
2023-10-02T04:10:00,rvs,10.06
2023-10-02T04:11:00,rvs,9.70
2023-10-02T04:12:00,rvs,9.82
2023-10-02T04:13:00,rvs,9.83
2023-10-02T04:14:00,rvs,9.77
2023-10-02T04:15:00,rvs,9.74
2023-10-02T04:16:00,rvs,9.61
2023-10-02T04:17:00,rvs,9.60
2023-10-02T04:18:00,rvs,9.51
2023-10-02T04:19:00,rvs,9.50
2023-10-02T04:20:00,rvs,9.58
2023-10-02T04:21:00,rvs,9.46
2023-10-02T04:22:00,rvs,9.45
2023-10-02T04:23:00,rvs,9.49
2023-10-02T04:24:00,rvs,9.53
2023-10-02T04:25:00,rvs,9.64
2023-10-02T04:26:00,rvs,9.51
2023-10-02T04:27:00,rvs,9.60
2023-10-02T04:28:00,rvs,9.50
2023-10-02T04:29:00,rvs,9.51
2023-10-02T04:30:00,rvs,9.61
2023-10-02T04:31:00,rvs,9.50
2023-10-02T04:32:00,rvs,9.43
2023-10-02T04:33:00,rvs,9.28
2023-10-02T04:34:00,rvs,9.29
2023-10-02T04:35:00,rvs,9.39
2023-10-02T04:36:00,rvs,9.39
2023-10-02T04:37:00,rvs,9.89
2023-10-02T04:38:00,rvs,9.69
2023-10-02T04:39:00,rvs,9.79
2023-10-02T04:40:00,rvs,9.73
2023-10-02T04:41:00,rvs,9.74
2023-10-02T04:42:00,rvs,10.28
2023-10-02T04:43:00,rvs,10.25
2023-10-02T04:44:00,rvs,10.77
2023-10-02T04:45:00,rvs,10.69
2023-10-02T04:46:00,rvs,10.73
2023-10-02T04:47:00,rvs,10.56
2023-10-02T04:48:00,rvs,10.71
2023-10-02T04:49:00,rvs,10.59
2023-10-02T04:50:00,rvs,10.82
2023-10-02T04:51:00,rvs,10.82
2023-10-02T04:52:00,rvs,10.67
2023-10-02T04:53:00,rvs,9.92
2023-10-02T04:54:00,rvs,9.85
2023-10-02T04:55:00,rvs,10.35
2023-10-02T04:56:00,rvs,10.35
2023-10-02T04:57:00,rvs,10.58
2023-10-02T04:58:00,rvs,10.12
2023-10-02T04:59:00,rvs,10.11
2023-10-02T05:00:00,rvs,10.20
2023-10-02T05:01:00,rvs,10.23
2023-10-02T05:02:00,rvs,9.58
2023-10-02T05:03:00,rvs,9.60
2023-10-02T05:04:00,rvs,9.52
2023-10-02T05:05:00,rvs,9.45
2023-10-02T05:06:00,rvs,9.55
2023-10-02T05:07:00,rvs,9.60
2023-10-02T05:08:00,rvs,9.58
2023-10-02T05:09:00,rvs,9.45
2023-10-02T05:10:00,rvs,9.31
2023-10-02T05:11:00,rvs,9.41
2023-10-02T05:12:00,rvs,9.84
2023-10-02T05:13:00,rvs,9.40
2023-10-02T05:14:00,rvs,9.51
2023-10-02T05:15:00,rvs,9.58
2023-10-02T05:16:00,rvs,9.49
2023-10-02T05:17:00,rvs,9.76
2023-10-02T05:18:00,rvs,9.69
2023-10-02T05:19:00,rvs,10.00
2023-10-02T05:20:00,rvs,9.76
2023-10-02T05:21:00,rvs,9.83
2023-10-02T05:22:00,rvs,9.45
2023-10-02T05:23:00,rvs,9.39
2023-10-02T05:24:00,rvs,9.43
2023-10-02T05:25:00,rvs,9.44
2023-10-02T05:26:00,rvs,9.38
2023-10-02T05:27:00,rvs,9.20
2023-10-02T05:28:00,rvs,9.34
2023-10-02T05:29:00,rvs,9.47
2023-10-02T05:30:00,rvs,9.62
2023-10-02T05:31:00,rvs,9.57
2023-10-02T05:32:00,rvs,9.60
2023-10-02T05:33:00,rvs,10.00
2023-10-02T05:34:00,rvs,10.04
2023-10-02T05:35:00,rvs,10.56
2023-10-02T05:36:00,rvs,9.96
2023-10-02T05:37:00,rvs,9.96
2023-10-02T05:38:00,rvs,9.96
2023-10-02T05:39:00,rvs,9.97
2023-10-02T05:40:00,rvs,10.00
2023-10-02T05:41:00,rvs,10.50
2023-10-02T05:42:00,rvs,10.99
2023-10-02T05:43:00,rvs,11.15
2023-10-02T05:44:00,rvs,10.96
2023-10-02T05:45:00,rvs,10.94
2023-10-02T05:46:00,rvs,10.94
2023-10-02T05:47:00,rvs,11.11
2023-10-02T05:48:00,rvs,11.19
2023-10-02T05:49:00,rvs,11.13
2023-10-02T05:50:00,rvs,10.76
2023-10-02T05:51:00,rvs,10.73
2023-10-02T05:52:00,rvs,10.78
2023-10-02T05:53:00,rvs,10.66
2023-10-02T05:54:00,rvs,10.68
2023-10-02T05:55:00,rvs,11.21
2023-10-02T05:56:00,rvs,10.43
2023-10-02T05:57:00,rvs,10.76
2023-10-02T05:58:00,rvs,10.27
2023-10-02T05:59:00,rvs,10.24
2023-10-02T06:00:00,rvs,10.11
2023-10-02T06:01:00,rvs,10.08
2023-10-02T06:02:00,rvs,9.72
2023-10-02T06:03:00,rvs,9.67
2023-10-02T06:04:00,rvs,9.76
2023-10-02T06:05:00,rvs,9.88
2023-10-02T06:06:00,rvs,9.79
2023-10-02T06:07:00,rvs,9.51
2023-10-02T06:08:00,rvs,9.40
2023-10-02T06:09:00,rvs,9.42
2023-10-02T06:10:00,rvs,9.40
2023-10-02T06:11:00,rvs,9.30
2023-10-02T06:12:00,rvs,22.04
2023-10-02T06:13:00,rvs,22.19
2023-10-02T06:14:00,rvs,22.01
2023-10-02T06:15:00,rvs,21.76
2023-10-02T06:16:00,rvs,9.48
2023-10-02T06:17:00,rvs,9.61
2023-10-02T06:18:00,rvs,9.75
2023-10-02T06:19:00,rvs,9.87
2023-10-02T06:20:00,rvs,9.68
2023-10-02T06:21:00,rvs,9.59
2023-10-02T06:22:00,rvs,9.63
2023-10-02T06:23:00,rvs,9.38
2023-10-02T06:24:00,rvs,9.32
2023-10-02T06:25:00,rvs,9.31
2023-10-02T06:26:00,rvs,9.91
2023-10-02T06:27:00,rvs,9.97
2023-10-02T06:28:00,rvs,9.80
2023-10-02T06:29:00,rvs,9.77
2023-10-02T06:30:00,rvs,9.70
2023-10-02T06:31:00,rvs,9.78
2023-10-02T06:32:00,rvs,9.73
2023-10-02T06:33:00,rvs,9.82
2023-10-02T06:34:00,rvs,9.81
2023-10-02T06:35:00,rvs,10.18
2023-10-02T06:36:00,rvs,10.19
2023-10-02T06:37:00,rvs,9.98
2023-10-02T06:38:00,rvs,9.93
2023-10-02T06:39:00,rvs,9.79
2023-10-02T06:40:00,rvs,9.84
2023-10-02T06:41:00,rvs,9.75
2023-10-02T06:42:00,rvs,9.71
2023-10-02T06:43:00,rvs,10.14
2023-10-02T06:44:00,rvs,10.29
2023-10-02T06:45:00,rvs,9.89
2023-10-02T06:46:00,rvs,9.44
2023-10-02T06:47:00,rvs,9.45
2023-10-02T06:48:00,rvs,9.18
2023-10-02T06:49:00,rvs,9.28
2023-10-02T06:50:00,rvs,9.47
2023-10-02T06:51:00,rvs,9.45
2023-10-02T06:52:00,rvs,9.86
2023-10-02T06:53:00,rvs,10.15
2023-10-02T06:54:00,rvs,9.86
2023-10-02T06:55:00,rvs,10.54
2023-10-02T06:56:00,rvs,10.13
2023-10-02T06:57:00,rvs,10.21
2023-10-02T06:58:00,rvs,11.48
2023-10-02T06:59:00,rvs,10.78
2023-10-02T07:00:00,rvs,10.77
2023-10-02T07:01:00,rvs,10.77
2023-10-02T07:02:00,rvs,10.77
2023-10-02T07:03:00,rvs,11.30
2023-10-02T07:04:00,rvs,11.33
2023-10-02T07:05:00,rvs,11.26
2023-10-02T07:06:00,rvs,11.21
2023-10-02T07:07:00,rvs,12.67
2023-10-02T07:08:00,rvs,11.88
2023-10-02T07:09:00,rvs,11.11
2023-10-02T07:10:00,rvs,12.78
2023-10-02T07:11:00,rvs,13.20
2023-10-02T07:12:00,rvs,13.46
2023-10-02T07:13:00,rvs,12.92
2023-10-02T07:14:00,rvs,13.27
2023-10-02T07:15:00,rvs,13.94
2023-10-02T07:16:00,rvs,14.71
2023-10-02T07:17:00,rvs,15.67
2023-10-02T07:18:00,rvs,15.80
2023-10-02T07:19:00,rvs,10.77
2023-10-02T07:20:00,rvs,10.70
2023-10-02T07:21:00,rvs,10.47
2023-10-02T07:22:00,rvs,11.30
2023-10-02T07:23:00,rvs,11.19
2023-10-02T07:24:00,rvs,11.13
2023-10-02T07:25:00,rvs,11.17
2023-10-02T07:26:00,rvs,11.07
2023-10-02T07:27:00,rvs,11.09
2023-10-02T07:28:00,rvs,10.95
2023-10-02T07:29:00,rvs,10.92
2023-10-02T07:30:00,rvs,10.95
2023-10-02T07:31:00,rvs,12.67
2023-10-02T07:32:00,rvs,12.69
2023-10-02T07:33:00,rvs,12.15
2023-10-02T07:34:00,rvs,11.63
2023-10-02T07:35:00,rvs,11.13
2023-10-02T07:36:00,rvs,11.63
2023-10-02T07:37:00,rvs,11.31
2023-10-02T07:38:00,rvs,10.73
2023-10-02T07:39:00,rvs,10.07
2023-10-02T07:40:00,rvs,10.10
2023-10-02T07:41:00,rvs,9.99
2023-10-02T07:42:00,rvs,9.99
2023-10-02T07:43:00,rvs,10.04
2023-10-02T07:44:00,rvs,10.07
2023-10-02T07:45:00,rvs,11.66
2023-10-02T07:46:00,rvs,10.14
2023-10-02T07:47:00,rvs,10.54
2023-10-02T07:48:00,rvs,10.65
2023-10-02T07:49:00,rvs,9.88
2023-10-02T07:50:00,rvs,11.33
2023-10-02T07:51:00,rvs,10.10
2023-10-02T07:52:00,rvs,10.18
2023-10-02T07:53:00,rvs,10.07
2023-10-02T07:54:00,rvs,10.43
2023-10-02T07:55:00,rvs,10.25
2023-10-02T07:56:00,rvs,10.37
2023-10-02T07:57:00,rvs,10.34
2023-10-02T07:58:00,rvs,10.43
2023-10-02T07:59:00,rvs,10.24
2023-10-02T08:00:00,rvs,10.30
2023-10-02T08:01:00,rvs,11.96
2023-10-02T08:02:00,rvs,12.04
2023-10-02T08:03:00,rvs,10.24
2023-10-02T08:04:00,rvs,10.09
2023-10-02T08:05:00,rvs,9.94
2023-10-02T08:06:00,rvs,10.10
2023-10-02T08:07:00,rvs,10.24
2023-10-02T08:08:00,rvs,10.77
2023-10-02T08:09:00,rvs,11.19
2023-10-02T08:10:00,rvs,11.13
2023-10-02T08:11:00,rvs,11.21
2023-10-02T08:12:00,rvs,11.32
2023-10-02T08:13:00,rvs,11.04
2023-10-02T08:14:00,rvs,11.00
2023-10-02T08:15:00,rvs,11.06
2023-10-02T08:16:00,rvs,11.16
2023-10-02T08:17:00,rvs,11.17
2023-10-02T08:18:00,rvs,11.16
2023-10-02T08:19:00,rvs,11.04
2023-10-02T08:20:00,rvs,10.99
2023-10-02T08:21:00,rvs,11.21
2023-10-02T08:22:00,rvs,11.09
2023-10-02T08:23:00,rvs,11.16
2023-10-02T08:24:00,rvs,11.66
2023-10-02T08:25:00,rvs,11.52
2023-10-02T08:26:00,rvs,11.27
2023-10-02T08:27:00,rvs,10.73
2023-10-02T08:28:00,rvs,10.97
2023-10-02T08:29:00,rvs,11.23
2023-10-02T08:30:00,rvs,10.89
2023-10-02T08:31:00,rvs,11.13
2023-10-02T08:32:00,rvs,10.79
2023-10-02T08:33:00,rvs,11.17
2023-10-02T08:34:00,rvs,10.65
2023-10-02T08:35:00,rvs,10.78
2023-10-02T08:36:00,rvs,10.25
2023-10-02T08:37:00,rvs,10.36
2023-10-02T08:38:00,rvs,10.28
2023-10-02T08:39:00,rvs,10.70
2023-10-02T08:40:00,rvs,11.21
2023-10-02T08:41:00,rvs,10.46
2023-10-02T08:42:00,rvs,10.50
2023-10-02T08:43:00,rvs,10.04
2023-10-02T08:44:00,rvs,9.98
2023-10-02T08:45:00,rvs,10.36
2023-10-02T08:46:00,rvs,10.46
2023-10-02T08:47:00,rvs,10.25
2023-10-02T08:48:00,rvs,9.58
2023-10-02T08:49:00,rvs,9.48
2023-10-02T08:50:00,rvs,9.53
2023-10-02T08:51:00,rvs,10.37
2023-10-02T08:52:00,rvs,10.39
2023-10-02T08:53:00,rvs,10.76
2023-10-02T08:54:00,rvs,10.56
2023-10-02T08:55:00,rvs,10.75
2023-10-02T08:56:00,rvs,10.97
2023-10-02T08:57:00,rvs,10.74
2023-10-02T08:58:00,rvs,10.74
2023-10-02T08:59:00,rvs,11.23
2023-10-02T09:00:00,rvs,11.34
2023-10-02T09:01:00,rvs,11.42
2023-10-02T09:02:00,rvs,11.34
2023-10-02T09:03:00,rvs,11.17
2023-10-02T09:04:00,rvs,11.04
2023-10-02T09:05:00,rvs,11.13
2023-10-02T09:06:00,rvs,10.64
2023-10-02T09:07:00,rvs,10.94
2023-10-02T09:08:00,rvs,10.77
2023-10-02T09:09:00,rvs,24.14
2023-10-02T09:10:00,rvs,23.55
2023-10-02T09:11:00,rvs,23.65
2023-10-02T09:12:00,rvs,22.65
2023-10-02T09:13:00,rvs,10.55
2023-10-02T09:14:00,rvs,10.50
2023-10-02T09:15:00,rvs,10.35
2023-10-02T09:16:00,rvs,10.38
2023-10-02T09:17:00,rvs,10.50
2023-10-02T09:18:00,rvs,11.36
2023-10-02T09:19:00,rvs,11.35
2023-10-02T09:20:00,rvs,11.30
2023-10-02T09:21:00,rvs,11.22
2023-10-02T09:22:00,rvs,11.22
2023-10-02T09:23:00,rvs,11.11
2023-10-02T09:24:00,rvs,11.46
2023-10-02T09:25:00,rvs,11.74
2023-10-02T09:26:00,rvs,13.18
2023-10-02T09:27:00,rvs,11.82
2023-10-02T09:28:00,rvs,12.44
2023-10-02T09:29:00,rvs,12.03
2023-10-02T09:30:00,rvs,11.97
2023-10-02T09:31:00,rvs,11.30
2023-10-02T09:32:00,rvs,11.15
2023-10-02T09:33:00,rvs,11.80
2023-10-02T09:34:00,rvs,12.50
2023-10-02T09:35:00,rvs,11.63
2023-10-02T09:36:00,rvs,11.71
2023-10-02T09:37:00,rvs,11.56
2023-10-02T09:38:00,rvs,11.52
2023-10-02T09:39:00,rvs,11.60
2023-10-02T09:40:00,rvs,12.16
2023-10-02T09:41:00,rvs,12.61
2023-10-02T09:42:00,rvs,12.77
2023-10-02T09:43:00,rvs,12.32
2023-10-02T09:44:00,rvs,12.26
2023-10-02T09:45:00,rvs,11.86
2023-10-02T09:46:00,rvs,11.76
2023-10-02T09:47:00,rvs,11.52
2023-10-02T09:48:00,rvs,11.56
2023-10-02T09:49:00,rvs,12.80
2023-10-02T09:50:00,rvs,13.10
2023-10-02T09:51:00,rvs,13.01
2023-10-02T09:52:00,rvs,13.20
2023-10-02T09:53:00,rvs,11.66
2023-10-02T09:54:00,rvs,11.78
2023-10-02T09:55:00,rvs,29.38
2023-10-02T09:56:00,rvs,12.37
2023-10-02T09:57:00,rvs,12.22
2023-10-02T09:58:00,rvs,11.98
2023-10-02T09:59:00,rvs,12.07
2023-10-02T10:00:00,rvs,11.96
2023-10-02T10:01:00,rvs,12.02
2023-10-02T10:02:00,rvs,11.89
2023-10-02T10:03:00,rvs,12.10
2023-10-02T10:04:00,rvs,12.03
2023-10-02T10:05:00,rvs,12.21
2023-10-02T10:06:00,rvs,11.88
2023-10-02T10:07:00,rvs,11.92
2023-10-02T10:08:00,rvs,12.42
2023-10-02T10:09:00,rvs,12.19
2023-10-02T10:10:00,rvs,12.06
2023-10-02T10:11:00,rvs,11.97
2023-10-02T10:12:00,rvs,12.36
2023-10-02T10:13:00,rvs,12.48
2023-10-02T10:14:00,rvs,12.79
2023-10-02T10:15:00,rvs,12.60
2023-10-02T10:16:00,rvs,11.65
2023-10-02T10:17:00,rvs,12.01
2023-10-02T10:18:00,rvs,12.65
2023-10-02T10:19:00,rvs,12.40
2023-10-02T10:20:00,rvs,12.51
2023-10-02T10:21:00,rvs,12.74
2023-10-02T10:22:00,rvs,12.41
2023-10-02T10:23:00,rvs,12.54
2023-10-02T10:24:00,rvs,12.36
2023-10-02T10:25:00,rvs,11.67
2023-10-02T10:26:00,rvs,12.06
2023-10-02T10:27:00,rvs,11.63
2023-10-02T10:28:00,rvs,12.00
2023-10-02T10:29:00,rvs,11.84
2023-10-02T10:30:00,rvs,12.01
2023-10-02T10:31:00,rvs,12.61
2023-10-02T10:32:00,rvs,12.50
2023-10-02T10:33:00,rvs,12.60
2023-10-02T10:34:00,rvs,13.17
2023-10-02T10:35:00,rvs,13.06
2023-10-02T10:36:00,rvs,14.20
2023-10-02T10:37:00,rvs,15.32
2023-10-02T10:38:00,rvs,13.62
2023-10-02T10:39:00,rvs,13.62
2023-10-02T10:40:00,rvs,18.26
2023-10-02T10:41:00,rvs,18.51
2023-10-02T10:42:00,rvs,16.87
2023-10-02T10:43:00,rvs,17.15
2023-10-02T10:44:00,rvs,19.23
2023-10-02T10:45:00,rvs,19.26
2023-10-02T10:46:00,rvs,18.13
2023-10-02T10:47:00,rvs,18.13
2023-10-02T10:48:00,rvs,16.59
2023-10-02T10:49:00,rvs,17.01
2023-10-02T10:50:00,rvs,17.45
2023-10-02T10:51:00,rvs,16.78
2023-10-02T10:52:00,rvs,16.60
2023-10-02T10:53:00,rvs,16.71
2023-10-02T10:54:00,rvs,16.39
2023-10-02T10:55:00,rvs,15.94
2023-10-02T10:56:00,rvs,17.07
2023-10-02T10:57:00,rvs,16.96
2023-10-02T10:58:00,rvs,17.06
2023-10-02T10:59:00,rvs,17.69
2023-10-02T11:00:00,rvs,17.15
2023-10-02T11:01:00,rvs,17.08
2023-10-02T11:02:00,rvs,17.74
2023-10-02T11:03:00,rvs,17.62
2023-10-02T11:04:00,rvs,17.58
2023-10-02T11:05:00,rvs,17.39
2023-10-02T11:06:00,rvs,17.42
2023-10-02T11:07:00,rvs,17.24
2023-10-02T11:08:00,rvs,17.58
2023-10-02T11:09:00,rvs,17.58
2023-10-02T11:10:00,rvs,18.39
2023-10-02T11:11:00,rvs,17.81
2023-10-02T11:12:00,rvs,17.69
2023-10-02T11:13:00,rvs,16.93
2023-10-02T11:14:00,rvs,16.96
2023-10-02T11:15:00,rvs,17.21
2023-10-02T11:16:00,rvs,18.32
2023-10-02T11:17:00,rvs,17.52
2023-10-02T11:18:00,rvs,17.29
2023-10-02T11:19:00,rvs,17.17
2023-10-02T11:20:00,rvs,17.12
2023-10-02T11:21:00,rvs,16.62
2023-10-02T11:22:00,rvs,17.11
2023-10-02T11:23:00,rvs,17.08
2023-10-02T11:24:00,rvs,16.71
2023-10-02T11:25:00,rvs,16.53
2023-10-02T11:26:00,rvs,17.40
2023-10-02T11:27:00,rvs,17.39
2023-10-02T11:28:00,rvs,17.00
2023-10-02T11:29:00,rvs,15.98
2023-10-02T11:30:00,rvs,15.91
2023-10-02T11:31:00,rvs,15.72
2023-10-02T11:32:00,rvs,15.69
2023-10-02T11:33:00,rvs,15.66
2023-10-02T11:34:00,rvs,15.78
2023-10-02T11:35:00,rvs,15.51
2023-10-02T11:36:00,rvs,15.60
2023-10-02T11:37:00,rvs,16.15
2023-10-02T11:38:00,rvs,16.16
2023-10-02T11:39:00,rvs,17.54
2023-10-02T11:40:00,rvs,16.51
2023-10-02T11:41:00,rvs,18.80
2023-10-02T11:42:00,rvs,19.51
2023-10-02T11:43:00,rvs,18.68
2023-10-02T11:44:00,rvs,18.73
2023-10-02T11:45:00,rvs,29.97
2023-10-02T11:46:00,rvs,25.78
2023-10-02T11:47:00,rvs,25.98
2023-10-02T11:48:00,rvs,26.27
2023-10-02T11:49:00,rvs,17.06
2023-10-02T11:50:00,rvs,17.17
2023-10-02T11:51:00,rvs,13.47
2023-10-02T11:52:00,rvs,13.27
2023-10-02T11:53:00,rvs,12.68
2023-10-02T11:54:00,rvs,12.81
2023-10-02T11:55:00,rvs,13.94
2023-10-02T11:56:00,rvs,14.70
2023-10-02T11:57:00,rvs,14.55
2023-10-02T11:58:00,rvs,14.69
2023-10-02T11:59:00,rvs,14.98
2023-10-02T12:00:00,rvs,15.16
2023-10-02T12:01:00,rvs,14.78
2023-10-02T12:02:00,rvs,14.54
2023-10-02T12:03:00,rvs,14.33
2023-10-02T12:04:00,rvs,14.29
2023-10-02T12:05:00,rvs,15.01
2023-10-02T12:06:00,rvs,14.65
2023-10-02T12:07:00,rvs,14.35
2023-10-02T12:08:00,rvs,13.63
2023-10-02T12:09:00,rvs,12.41
2023-10-02T12:10:00,rvs,12.51
2023-10-02T12:11:00,rvs,12.53
2023-10-02T12:12:00,rvs,31.63
2023-10-02T12:13:00,rvs,15.02
2023-10-02T12:14:00,rvs,14.89
2023-10-02T12:15:00,rvs,14.95
2023-10-02T12:16:00,rvs,16.23
2023-10-02T12:17:00,rvs,16.78
2023-10-02T12:18:00,rvs,16.03
2023-10-02T12:19:00,rvs,15.58
2023-10-02T12:20:00,rvs,15.76
2023-10-02T12:21:00,rvs,15.46
2023-10-02T12:22:00,rvs,20.36
2023-10-02T12:23:00,rvs,20.09
2023-10-02T12:24:00,rvs,19.74
2023-10-02T12:25:00,rvs,38.62
2023-10-02T12:26:00,rvs,19.79
2023-10-02T12:27:00,rvs,17.88
2023-10-02T12:28:00,rvs,17.63
2023-10-02T12:29:00,rvs,18.05
2023-10-02T12:30:00,rvs,17.75
2023-10-02T12:31:00,rvs,22.04
2023-10-02T12:32:00,rvs,20.54
2023-10-02T12:33:00,rvs,21.11
2023-10-02T12:34:00,rvs,17.01
2023-10-02T12:35:00,rvs,16.98
2023-10-02T12:36:00,rvs,16.75
2023-10-02T12:37:00,rvs,17.17
2023-10-02T12:38:00,rvs,17.26
2023-10-02T12:39:00,rvs,17.14
2023-10-02T12:40:00,rvs,20.57
2023-10-02T12:41:00,rvs,20.33
2023-10-02T12:42:00,rvs,20.60
2023-10-02T12:43:00,rvs,20.67
2023-10-02T12:44:00,rvs,16.80
2023-10-02T12:45:00,rvs,16.43
2023-10-02T12:46:00,rvs,16.64
2023-10-02T12:47:00,rvs,17.38
2023-10-02T12:48:00,rvs,17.46
2023-10-02T12:49:00,rvs,17.03
2023-10-02T12:50:00,rvs,16.58
2023-10-02T12:51:00,rvs,20.56
2023-10-02T12:52:00,rvs,20.84
2023-10-02T12:53:00,rvs,20.71
2023-10-02T12:54:00,rvs,20.67
2023-10-02T12:55:00,rvs,16.94
2023-10-02T12:56:00,rvs,17.06
2023-10-02T12:57:00,rvs,17.17
2023-10-02T12:58:00,rvs,16.81
2023-10-02T12:59:00,rvs,16.68
2023-10-02T13:00:00,rvs,16.91
2023-10-02T13:01:00,rvs,19.56
2023-10-02T13:02:00,rvs,21.74
2023-10-02T13:03:00,rvs,26.50
2023-10-02T13:04:00,rvs,26.53
2023-10-02T13:05:00,rvs,22.85
2023-10-02T13:06:00,rvs,22.25
2023-10-02T13:07:00,rvs,25.49
2023-10-02T13:08:00,rvs,25.82
2023-10-02T13:09:00,rvs,25.89
2023-10-02T13:10:00,rvs,21.32
2023-10-02T13:11:00,rvs,20.98
2023-10-02T13:12:00,rvs,23.34
2023-10-02T13:13:00,rvs,28.62
2023-10-02T13:14:00,rvs,31.39
2023-10-02T13:15:00,rvs,32.63
2023-10-02T13:16:00,rvs,26.10
2023-10-02T13:17:00,rvs,26.82
2023-10-02T13:18:00,rvs,25.59
2023-10-02T13:19:00,rvs,21.99
2023-10-02T13:20:00,rvs,21.41
2023-10-02T13:21:00,rvs,22.15
2023-10-02T13:22:00,rvs,22.14